User: anonymous   Login
Location: Unspecified
(0.0000°N, 0.0000°E)
Time: 02:58:33
(UTC+00:00)
Language:

Explorer 26 - Orbit

View from above orbital plane
View from above orbital plane
View from above satellite
View from above satellite

Ground track
Ground track

The orbit data is extracted from the following two-line orbital elements,

1 00963U 64086A   18171.31989348  .00046360 -10730-4  45665-3 0  9999
2 00963  19.7113 183.0897 1020301  58.2912 311.2929 13.68890485 91988
Epoch (UTC): 20 June 2018 07:40:38
Eccentricity: 0.1020301
inclination: 19.7113°
perigee height: 250 km
apogee height: 1757 km
right ascension of ascending node: 183.0897°
argument of perigee: 58.2912°
revolutions per day: 13.68890485
mean anomaly at epoch: 311.2929°
orbit number at epoch: 9198

The dashed part of the orbit path shows where the satellite is in the earth's shadow,  

DLR